Date,TemperatureHighF,TemperatureAvgF,TemperatureLowF,DewpointHighF,DewpointAvgF,DewpointLowF,HumidityHigh,HumidityAvg,HumidityLow,PressureMaxIn,PressureMinIn,WindSpeedMaxMPH,WindSpeedAvgMPH,GustSpeedMaxMPH,PrecipitationSumIn
2013-1-1,55.6,51.9,41.2,47.8,42.8,34.9,85,71,61,30.16,30.09,2,1,6,0.00
2013-1-2,56.8,54.2,49.1,48.4,46.5,45.3,88,75,67,30.22,30.07,8,3,16,0.01
2013-1-3,61.3,56.5,46.4,47.3,45.4,41.2,82,67,59,30.51,30.46,2,0,6,0.00
2013-1-4,60.4,54.6,45.0,46.0,43.4,40.1,83,66,54,30.48,30.35,3,1,6,0.00
2013-1-5,57.4,52.6,44.4,47.8,44.9,40.6,87,75,68,30.23,30.11,3,1,10,0.00
2013-1-6,59.4,53.5,43.3,49.5,45.8,39.2,86,75,67,30.25,30.14,3,1,6,0.00
2013-1-7,61.5,55.3,44.8,47.3,44.5,41.2,87,68,56,30.21,30.14,2,1,6,0.00
2013-1-9,56.5,53.9,47.5,45.7,43.9,41.9,86,69,62,30.23,30.17,3,1,7,0.00
2013-1-10,54.9,52.8,52.0,49.5,48.2,45.1,90,84,74,30.00,29.84,5,1,11,0.24
2013-1-11,56.5,51.3,45.1,50.5,46.1,42.8,95,82,73,29.85,29.69,9,2,18,0.02
2013-1-12,56.7,53.2,48.4,47.8,45.3,40.3,80,75,67,30.03,29.99,4,2,8,0.00
2013-1-13,55.4,53.8,48.9,50.9,48.9,45.3,87,84,78,29.94,29.77,10,3,22,0.10
2013-1-14,56.7,54.9,52.2,49.3,46.4,42.1,83,73,67,29.89,29.78,7,4,17,0.01
2013-1-15,56.1,52.1,46.9,43.2,40.5,37.0,79,65,50,29.89,29.71,5,3,12,0.03
2013-1-16,46.0,44.4,40.8,41.9,40.3,37.8,91,86,77,29.53,29.44,9,3,20,0.36
2013-1-17,49.5,44.6,39.4,44.6,39.7,35.2,87,83,78,29.43,29.30,9,2,22,0.06
2013-1-18,49.5,46.9,43.9,35.8,34.6,33.8,68,62,57,29.61,29.48,9,4,24,0.00
2013-1-19,49.3,44.5,38.7,44.4,39.6,33.4,85,83,81,29.67,29.53,6,2,13,0.10
2013-1-20,59.5,58.5,56.7,56.3,54.6,50.0,91,87,77,29.53,29.46,9,5,22,0.13
2013-1-21,55.6,51.5,48.7,50.2,44.7,41.9,90,78,69,29.53,29.41,11,2,22,0.00
2013-1-22,56.1,53.3,48.7,42.6,40.2,36.0,75,61,47,29.78,29.63,8,3,19,0.01
2013-1-23,49.5,47.9,46.2,44.6,42.6,39.9,88,82,75,29.80,29.64,6,3,15,0.31
2013-1-24,54.7,51.0,45.7,45.9,42.7,39.9,88,73,63,29.49,29.40,4,1,10,0.00
2013-1-25,55.2,51.6,46.2,40.6,38.2,34.3,75,60,54,29.63,29.51,5,2,17,0.00
2013-1-26,53.1,48.7,42.1,33.8,31.8,30.4,65,52,46,29.84,29.70,5,2,11,0.00
2013-1-27,54.0,48.2,37.8,39.2,35.3,29.8,73,61,56,30.00,29.97,3,1,8,0.00
2013-1-28,48.4,47.0,44.8,45.3,42.9,40.8,89,86,83,29.94,29.83,9,4,22,0.45
2013-1-29,58.5,52.8,43.5,45.7,42.8,39.0,84,69,55,30.25,30.19,4,1,9,0.01
2013-1-30,61.0,55.5,44.1,48.4,45.2,39.9,86,69,58,30.24,30.17,3,1,8,0.00
2013-1-31,66.6,59.8,47.8,53.2,50.6,44.1,87,73,57,30.21,30.15,5,1,9,0.00
2013-2-1,62.4,58.2,50.0,53.1,50.9,46.0,87,77,69,30.07,29.89,5,2,12,0.00
2013-2-2,61.2,56.9,53.2,53.6,50.2,41.7,87,78,65,29.45,29.25,9,6,31,0.09
2013-2-3,57.4,52.8,46.0,42.6,38.5,32.5,80,60,42,29.79,29.45,7,3,14,0.00
2013-2-4,56.7,50.9,40.6,38.7,32.1,24.6,63,50,32,30.15,30.09,6,2,12,0.00
2013-2-5,55.2,52.6,44.8,49.5,45.8,37.2,87,78,69,30.07,29.85,6,3,16,0.00
2013-2-6,56.7,53.6,50.4,47.3,39.6,32.7,83,60,44,29.65,29.51,11,4,29,0.06
2013-2-7,50.4,46.2,42.3,43.0,40.9,39.4,90,82,68,29.53,29.46,8,2,17,0.25
2013-2-8,53.8,49.5,43.7,35.2,32.5,28.2,67,52,46,29.71,29.64,5,2,18,0.00
2013-2-9,50.5,46.6,39.6,29.1,26.9,23.5,63,47,38,29.89,29.81,6,3,16,0.00
2013-2-10,50.4,46.0,37.0,27.1,20.5,14.7,67,38,25,29.95,29.91,4,2,10,0.00
2013-2-11,54.7,48.1,41.5,47.1,40.8,28.0,89,76,56,29.81,29.53,12,6,32,0.43
2013-2-12,54.9,51.7,46.8,45.7,43.8,42.1,88,75,64,29.66,29.61,5,1,11,0.10
2013-2-13,55.6,50.6,43.9,39.7,37.0,35.1,77,60,49,29.77,29.69,4,2,10,0.00
2013-2-14,57.7,53.5,45.1,38.3,37.1,35.8,70,54,46,29.98,29.94,4,2,11,0.00
2013-2-15,55.9,50.8,40.6,40.1,37.9,35.1,81,62,48,30.02,29.94,3,1,7,0.00
2013-2-16,59.0,53.5,44.1,43.5,39.6,34.7,72,60,44,30.07,30.01,4,2,11,0.00
2013-2-17,55.2,49.9,40.6,43.5,40.2,34.9,80,69,62,30.05,29.97,6,2,13,0.02
2013-2-18,54.1,49.1,41.4,41.7,39.3,36.5,84,69,58,30.01,29.94,4,1,9,0.00
2013-2-19,56.5,51.1,40.6,37.0,34.3,28.6,73,54,35,30.02,29.93,4,2,12,0.00
2013-2-20,55.8,50.0,36.1,39.6,36.8,31.1,82,61,51,30.01,29.90,4,1,10,0.00
2013-2-21,57.9,52.0,39.7,43.0,39.6,34.7,83,63,48,29.84,29.71,6,2,11,0.00
2013-2-22,55.9,52.5,48.2,48.4,46.5,44.6,89,80,70,29.62,29.43,9,3,20,0.01
2013-2-23,56.5,53.4,48.6,53.2,49.1,42.4,91,85,76,29.53,29.39,14,7,31,0.56
2013-2-24,50.5,47.1,43.3,37.9,35.5,31.8,78,64,52,29.89,29.73,9,4,25,0.01
2013-2-25,47.1,44.1,41.5,39.9,38.7,37.9,89,81,75,30.05,30.01,9,4,16,0.05
2013-2-26,56.1,52.2,43.2,41.2,39.1,36.1,80,61,51,30.11,30.07,5,2,10,0.00
2013-2-27,60.1,54.6,44.1,37.0,35.0,32.9,68,48,39,30.18,30.12,4,1,12,0.00
2013-2-28,60.3,54.9,42.6,44.1,40.4,36.0,78,59,47,30.24,30.14,5,2,11,0.00
2013-3-1,57.2,53.9,46.6,42.6,41.0,39.0,75,62,53,30.07,29.89,2,1,7,0.00
2013-3-2,64.0,58.4,50.5,45.3,41.1,32.4,75,54,39,29.93,29.80,5,2,14,0.00
2013-3-3,63.1,57.3,45.3,47.7,43.1,34.3,76,60,49,30.06,29.99,4,2,11,0.00
2013-3-4,62.4,57.4,44.4,46.0,44.0,40.1,85,62,50,30.14,30.09,5,2,11,0.00
2013-3-5,60.6,55.8,45.5,46.0,42.3,36.3,84,62,44,30.18,30.02,4,1,11,0.00
2013-3-6,62.8,58.3,54.0,54.9,50.3,43.2,92,76,52,29.82,29.69,16,8,33,0.39
2013-3-7,63.3,61.0,57.4,56.7,55.6,54.7,92,83,75,29.77,29.71,5,3,11,0.01
2013-3-8,61.3,59.7,57.4,55.8,54.7,53.2,87,83,78,29.75,29.64,6,3,17,0.09
2013-3-9,65.8,61.7,58.3,54.0,51.5,47.8,85,70,52,29.70,29.66,8,6,18,0.00
2013-3-10,64.9,60.9,55.8,54.5,50.5,47.1,92,69,56,29.69,29.55,8,4,19,0.25
2013-3-11,63.3,59.9,55.6,53.1,51.3,48.7,90,73,61,29.61,29.53,9,4,17,0.00
2013-3-12,60.4,54.5,48.6,53.1,48.5,44.4,88,81,67,29.59,29.50,7,4,16,0.38
2013-3-13,55.2,51.7,47.3,50.9,47.8,44.6,90,87,82,29.51,29.32,8,2,14,0.24
2013-3-14,59.9,54.7,46.9,47.5,42.2,36.7,91,64,49,29.25,29.12,10,4,19,0.00
2013-3-15,56.7,52.9,47.1,32.7,31.0,28.4,56,43,37,29.77,29.50,6,2,15,0.00